Weather reports worldwide

Advertisment
Rostherne No 2, United Kingdom (3351): temperature & dewpoint: 04.12.2018 03:00:00 - 10.12.2018 03:00:00 (GMT)Rostherne No 2, United Kingdom (3351): wind speed & gusts: 04.12.2018 03:00:00 - 10.12.2018 03:00:00 (GMT)Rostherne No 2, United Kingdom (3351): wind direction: 04.12.2018 03:00:00 - 10.12.2018 03:00:00 (GMT)Rostherne No 2, United Kingdom (3351): reduced air pressure: 04.12.2018 03:00:00 - 10.12.2018 03:00:00 (GMT)Rostherne No 2, United Kingdom (3351): visibility: 04.12.2018 03:00:00 - 10.12.2018 03:00:00 (GMT)Rostherne No 2, United Kingdom (3351): sunshine duration: 04.12.2018 03:00:00 - 10.12.2018 03:00:00 (GMT)Rostherne No 2, United Kingdom (3351): precipitation: 04.12.2018 03:00:00 - 10.12.2018 03:00:00 (GMT)
Date & Time tt [°C] td [°C] ff [km/h] ff [kn] fx [km/h] fx [kn] dd ppp [hPa] vv [km] sd [min] rr [mm]
10.12.2018 03:00:00 6,3 5,4 2 1 - - SSE 1023,2 18 0 0,0
10.12.2018 02:00:00 6,0 5,4 8 4 - - W 1022,9 23 0 0,0
10.12.2018 01:00:00 5,7 5,2 5 3 - - SSW 1022,7 16 0 0,0
10.12.2018 00:00:00 5,7 5,1 4 2 - - WSW 1022,1 14 - 0,0
09.12.2018 23:00:00 6,2 5,6 5 3 - - SW 1021,5 24 0 0,0
09.12.2018 22:00:00 6,4 5,6 9 5 - - NW 1020,9 9 0 2,2
09.12.2018 21:00:00 6,5 5,1 8 4 - - W 1020,2 12 0 0,2
09.12.2018 20:00:00 6,6 4,2 8 4 - - WNW 1019,2 25 0 0,0
09.12.2018 19:00:00 7,0 4,5 9 5 - - WNW 1018,6 19 0 0,0
09.12.2018 18:00:00 7,3 4,2 15 8 - - WNW 1017,7 22 0 0,0
09.12.2018 17:00:00 7,6 3,3 15 8 - - NW 1016,4 35 0 0,0
09.12.2018 16:00:00 7,4 3,6 18 10 - - NW 1015,4 24 0 0,0
09.12.2018 15:00:00 8,2 3,8 21 11 54 29 NW 1014,1 27 30 0,0
09.12.2018 14:00:00 9,1 4,1 29 16 48 26 NW 1012,4 30 60 0,0
09.12.2018 13:00:00 9,2 4,5 28 15 - - NW 1011,3 30 48 0,0
09.12.2018 12:00:00 8,5 5,3 24 13 - - NW 1010,2 40 18 0,0
09.12.2018 11:00:00 9,0 5,8 22 12 - - NW 1008,7 24 42 0,0
09.12.2018 10:00:00 7,8 6,0 15 8 - - NW 1007,1 30 6 0,0
09.12.2018 09:00:00 7,2 6,0 9 5 - - NNW 1005,4 30 0 0,0
09.12.2018 08:00:00 7,2 6,0 15 8 - - NNW 1003,2 20 0 0,0
09.12.2018 07:00:00 7,5 6,5 21 11 - - NW 1000,7 30 0 0,2
09.12.2018 06:00:00 8,2 6,6 24 13 - - WNW 998,3 22 0 0,0
09.12.2018 05:00:00 7,9 7,0 16 9 - - WNW 996,9 10 0 0,6
09.12.2018 04:00:00 7,9 6,5 26 14 - - W 995,7 9 0 0,8
09.12.2018 03:00:00 7,7 6,5 22 12 50 27 W 995,2 7 0 0,6
09.12.2018 02:00:00 8,7 5,6 24 13 55 30 W 994,9 15 0 0,0
09.12.2018 01:00:00 8,9 5,5 29 16 52 28 W 994,8 17 0 0,2
09.12.2018 00:00:00 9,0 5,5 31 17 57 31 W 994,7 15 - 0,0
08.12.2018 23:00:00 8,9 6,0 37 20 65 35 W 994,2 12 0 0,0
08.12.2018 22:00:00 8,5 6,4 34 18 59 32 W 994,1 13 0 0,2
08.12.2018 21:00:00 8,6 6,1 31 17 50 27 W 993,9 12 0 0,2
08.12.2018 20:00:00 9,0 5,7 34 18 57 31 W 994,0 13 0 0,0
08.12.2018 19:00:00 8,7 6,2 29 16 54 29 W 993,9 9 0 0,2
08.12.2018 18:00:00 8,0 6,3 22 12 72 39 W 993,8 15 0 0,4
08.12.2018 17:00:00 9,6 6,0 35 19 61 33 W 993,3 11 0 0,0
08.12.2018 16:00:00 8,8 6,3 24 13 48 26 W 993,3 13 0 0,4
08.12.2018 15:00:00 9,5 7,6 29 16 50 27 W 994,1 9 0 1,6
08.12.2018 14:00:00 8,8 8,1 11 6 - - SSW 994,7 20 12 2,4
08.12.2018 13:00:00 8,5 6,6 5 3 - - SSW 996,5 6 0 0,8
08.12.2018 12:00:00 9,5 5,2 13 7 - - SW 998,5 19 6 0,0
08.12.2018 11:00:00 9,8 4,9 22 12 - - WSW 1000,1 18 36 0,0
08.12.2018 10:00:00 9,4 4,6 26 14 48 26 W 1000,7 24 0 0,2
08.12.2018 09:00:00 8,9 5,1 26 14 55 30 W 1000,9 19 0 0,0
08.12.2018 08:00:00 8,6 5,9 31 17 61 33 W 1000,7 13 0 0,0
08.12.2018 07:00:00 8,7 5,9 42 23 65 35 W 999,9 17 0 0,2
08.12.2018 06:00:00 8,4 6,6 34 18 63 34 W 999,1 13 0 0,2
08.12.2018 05:00:00 8,2 6,9 35 19 81 44 W 998,4 7 0 2,0
08.12.2018 04:00:00 9,2 6,0 46 25 74 40 W 997,5 11 0 0,0
08.12.2018 03:00:00 8,8 6,0 48 26 89 48 W 996,8 7 0 0,4
08.12.2018 02:00:00 8,5 5,6 46 25 76 41 W 996,8 5 0 0,0
08.12.2018 01:00:00 9,8 3,8 39 21 65 35 W 996,7 22 0 0,0
08.12.2018 00:00:00 8,6 4,1 21 11 57 31 WSW 996,7 22 - 0,0
07.12.2018 23:00:00 8,4 4,0 22 12 46 25 WSW 997,3 24 0 0,0
07.12.2018 22:00:00 8,2 3,4 22 12 - - WSW 997,4 22 0 0,0
07.12.2018 21:00:00 6,9 2,9 21 11 - - WSW 997,5 26 0 0,0
07.12.2018 20:00:00 6,8 2,5 18 10 - - WSW 998,3 30 0 0,0
07.12.2018 19:00:00 6,1 2,0 13 7 - - SW 998,6 30 0 0,0
07.12.2018 18:00:00 5,6 1,4 15 8 - - SW 998,4 30 0 0,0
07.12.2018 17:00:00 6,4 1,4 21 11 - - W 998,2 35 0 0,0
07.12.2018 16:00:00 6,9 1,6 28 15 55 30 W 997,6 30 0 0,0
07.12.2018 15:00:00 7,8 2,0 29 16 46 25 W 997,2 24 6 0,0
07.12.2018 14:00:00 7,9 1,8 35 19 57 31 W 997,4 25 42 0,0
07.12.2018 13:00:00 8,9 2,6 41 22 59 32 W 996,9 18 42 0,0
07.12.2018 12:00:00 8,7 2,7 31 17 48 26 W 997,0 18 42 0,0
07.12.2018 11:00:00 9,0 3,9 29 16 52 28 W 997,4 22 6 0,0
07.12.2018 10:00:00 8,4 4,3 24 13 46 25 W 997,2 13 0 0,0
07.12.2018 09:00:00 8,8 5,1 29 16 - - W 997,0 13 0 0,0
07.12.2018 08:00:00 9,1 6,9 24 13 52 28 W 996,5 13 0 0,8
07.12.2018 07:00:00 10,2 8,5 22 12 50 27 WSW 996,5 1,9 0 1,6
07.12.2018 06:00:00 12,1 11,2 16 9 - - SSW 996,2 22 0 1,0
07.12.2018 05:00:00 12,4 11,4 21 11 - - S 996,9 50 0 0,6
07.12.2018 04:00:00 12,3 11,5 18 10 - - S 998,7 16 0 1,8
07.12.2018 03:00:00 12,5 11,3 18 10 - - S 1000,3 22 0 0,2
07.12.2018 02:00:00 12,6 11,3 21 11 - - S 1001,4 30 0 0,8
07.12.2018 01:00:00 12,5 10,6 21 11 - - S 1003,2 50 0 0,0
07.12.2018 00:00:00 12,3 10,6 15 8 - - S 1005,0 45 - 0,0
06.12.2018 23:00:00 11,8 10,6 13 7 - - S 1005,6 50 0 0,0
06.12.2018 22:00:00 11,6 10,5 9 5 - - S 1007,0 50 0 0,0
06.12.2018 21:00:00 12,2 10,6 8 4 - - SSW 1007,9 40 0 0,0
06.12.2018 20:00:00 12,3 10,5 9 5 - - SSW 1008,2 45 0 0,0
06.12.2018 19:00:00 12,8 10,8 11 6 - - SW 1008,3 50 0 0,0
06.12.2018 18:00:00 12,7 10,7 9 5 - - SW 1008,4 50 0 0,0
06.12.2018 17:00:00 13,0 10,8 11 6 - - WSW 1008,3 20 0 0,0
06.12.2018 16:00:00 12,6 10,9 16 9 - - WSW 1008,0 45 0 0,0
06.12.2018 15:00:00 12,0 10,8 11 6 - - SSW 1008,3 7 0 0,0
06.12.2018 14:00:00 11,6 9,9 15 8 - - SW 1008,5 50 0 0,0
06.12.2018 13:00:00 11,6 9,3 13 7 - - SSW 1008,9 13 0 0,0
06.12.2018 12:00:00 11,8 9,0 15 8 - - SW 1009,2 45 6 0,0
06.12.2018 11:00:00 11,5 9,9 16 9 - - SSW 1009,1 45 0 0,0
06.12.2018 10:00:00 10,8 10,0 13 7 - - SSW 1009,8 23 0 0,4
06.12.2018 09:00:00 10,7 9,6 13 7 - - SSW 1009,8 18 0 0,2
06.12.2018 08:00:00 10,8 9,4 13 7 - - S 1010,0 45 0 0,0
06.12.2018 07:00:00 10,3 9,5 11 6 - - S 1009,8 35 0 0,0
06.12.2018 06:00:00 9,5 9,3 9 5 - - SSW 1010,1 19 0 0,0
06.12.2018 05:00:00 9,2 9,1 9 5 - - S 1010,2 3,9 0 0,0
06.12.2018 04:00:00 9,6 9,4 8 4 - - S 1010,4 2,1 0 0,0
06.12.2018 03:00:00 9,7 9,5 5 3 - - SW 1010,0 1,7 0 0,0
06.12.2018 02:00:00 9,7 9,6 9 5 - - W 1010,6 2,7 0 0,0
06.12.2018 01:00:00 9,8 9,6 11 6 - - WNW 1010,4 2,8 0 0,0
06.12.2018 00:00:00 10,1 9,8 8 4 - - WNW 1009,4 1,1 - 0,0
05.12.2018 23:00:00 10,3 10,0 9 5 - - WNW 1008,9 4,5 0 0,0
05.12.2018 22:00:00 10,4 10,2 9 5 - - WNW 1008,3 2,1 0 0,0
05.12.2018 21:00:00 10,7 10,4 15 8 - - W 1007,7 3,4 0 0,0
05.12.2018 20:00:00 10,5 10,2 11 6 - - W 1007,4 3,0 0 0,0
05.12.2018 19:00:00 10,4 10,0 8 4 - - SSW 1006,9 8 0 0,8
05.12.2018 18:00:00 10,7 9,9 11 6 - - S 1006,3 9 0 0,4
05.12.2018 17:00:00 10,6 10,0 13 7 - - S 1006,0 8 0 1,8
05.12.2018 16:00:00 10,5 9,8 15 8 - - S 1006,1 14 0 0,0
05.12.2018 15:00:00 9,9 9,3 16 9 - - S 1006,2 12 0 0,4
05.12.2018 14:00:00 9,5 8,9 21 11 - - S 1006,5 14 0 1,0
05.12.2018 13:00:00 8,7 8,2 18 10 - - SSE 1007,7 12 0 1,8
05.12.2018 12:00:00 7,8 7,5 15 8 - - SE 1009,1 8 0 4,2
05.12.2018 11:00:00 7,0 6,6 13 7 - - SE 1010,9 5 0 2,8
05.12.2018 10:00:00 6,6 6,0 13 7 - - SSE 1011,9 8 0 1,6
05.12.2018 09:00:00 6,3 5,7 15 8 - - SSE 1012,8 10 0 2,4
05.12.2018 08:00:00 6,2 5,4 15 8 - - SSE 1013,4 17 0 1,8
05.12.2018 07:00:00 5,4 4,9 5 3 - - SSE 1014,2 3,8 0 0,8
05.12.2018 06:00:00 5,2 4,5 8 4 - - SE 1015,1 20 0 1,0
05.12.2018 05:00:00 4,9 4,3 8 4 - - ESE 1016,3 4,9 0 0,4
05.12.2018 04:00:00 4,5 3,5 13 7 - - SE 1017,2 17 0 0,6
05.12.2018 03:00:00 4,2 3,2 9 5 - - ESE 1018,5 15 0 0,0
05.12.2018 02:00:00 4,2 3,1 11 6 - - SE 1019,5 11 0 0,0
05.12.2018 01:00:00 4,5 3,0 13 7 - - SE 1020,1 20 0 0,0
05.12.2018 00:00:00 4,5 3,0 11 6 - - SSE 1020,8 26 - 0,0
04.12.2018 23:00:00 5,0 3,2 13 7 - - S 1021,3 22 0 0,0
04.12.2018 22:00:00 5,0 3,6 13 7 - - S 1021,5 16 0 0,0
04.12.2018 21:00:00 3,7 3,2 9 5 - - SSE 1021,8 10 0 0,0
04.12.2018 20:00:00 3,0 2,3 5 3 - - SSE 1021,9 10 0 0,0
04.12.2018 19:00:00 3,6 3,1 5 3 - - SSE 1021,9 10 0 0,0
04.12.2018 18:00:00 3,3 2,7 8 4 - - SSE 1022,1 8 0 0,0
04.12.2018 17:00:00 3,7 3,2 8 4 - - SSE 1022,2 9 0 0,0
04.12.2018 16:00:00 4,4 3,4 5 3 - - SE 1022,0 20 0 0,0
04.12.2018 15:00:00 5,0 4,0 4 2 - - SSE 1021,9 25 0 0,0
04.12.2018 14:00:00 5,1 4,4 5 3 - - S 1021,8 25 0 0,0
04.12.2018 13:00:00 5,0 4,6 4 2 - - SSE 1022,0 15 0 0,0
04.12.2018 12:00:00 4,2 3,9 4 2 - - SE 1021,8 10 18 0,0
04.12.2018 11:00:00 3,1 3,1 4 2 - - SE 1021,9 7 48 0,2
04.12.2018 10:00:00 0,1 0,1 2 1 - - S 1021,5 0,4 0 0,0
04.12.2018 09:00:00 -1,1 -1,2 2 1 - - ESE 1020,4 0,2 0 0,0
04.12.2018 08:00:00 -1,1 -1,3 5 3 - - SE 1020,1 0,1 0 0,0
04.12.2018 07:00:00 -0,6 -0,8 4 2 - - SE 1019,1 0,3 0 0,0
04.12.2018 06:00:00 -0,4 -0,6 4 2 - - ESE 1017,9 1,8 0 0,0
04.12.2018 05:00:00 -0,5 -0,7 4 2 - - S 1017,1 0,2 0 0,0
04.12.2018 04:00:00 0,5 0,2 2 1 - - SE 1016,0 0,5 0 0,0
04.12.2018 03:00:00 1,4 1,2 2 1 - - S 1015,1 0,2 0 0,0

tt = temperature
td = dewpoint
ff = wind speed
fx = gusts
dd = wind direction
ppp = reduced air pressure
vv = visibility
sd = sunshine duration
rr = precipitation

Next stations